| time (UTC) | temp C | wind direction | speed KPH | gust KPH | rain 1hr cm | rain 24hr cm | rain mn cm | humidity % | barometer mb |
| 20260504214027 | 27 | 190 | 4.8 | 12.9 | 0.00 | 0.00 | 0.00 | 41 | 1002.3 |
| 20260504213523 | 27 | 342 | 3.2 | 24.1 | 0.00 | 0.00 | 0.00 | 41 | 1002.4 |
| 20260504213036 | 27 | 308 | 3.2 | 24.1 | 0.00 | 0.00 | 0.00 | 41 | 1002.4 |
| 20260504212523 | 27 | 180 | 1.6 | 12.9 | 0.00 | 0.00 | 0.00 | 41 | 1002.5 |
| 20260504212024 | 27 | 289 | 1.6 | 11.3 | 0.00 | 0.00 | 0.00 | 42 | 1002.7 |
| 20260504211551 | 27 | 0 | 0.0 | 14.5 | 0.00 | 0.00 | 0.00 | 43 | 1002.7 |
| 20260504211023 | 27 | 186 | 4.8 | 14.5 | 0.00 | 0.00 | 0.00 | 41 | 1002.8 |
| 20260504210524 | 27 | 289 | 0.0 | 12.9 | 0.00 | 0.00 | 0.00 | 41 | 1002.8 |
| 20260504210043 | 27 | 267 | 1.6 | 12.9 | 0.00 | 0.00 | 0.00 | 41 | 1002.7 |
| 20260504205523 | 27 | 5 | 1.6 | 12.9 | 0.00 | 0.00 | 0.00 | 41 | 1002.8 |
| 20260504205023 | 27 | 81 | 3.2 | 12.9 | 0.00 | 0.00 | 0.00 | 41 | 1002.7 |
| 20260504204535 | 27 | 261 | 0.0 | 11.3 | 0.00 | 0.00 | 0.00 | 42 | 1002.7 |
| 20260504204023 | 27 | 317 | 0.0 | 12.9 | 0.00 | 0.00 | 0.00 | 40 | 1002.8 |
| 20260504203522 | 27 | 159 | 1.6 | 12.9 | 0.00 | 0.00 | 0.00 | 41 | 1002.8 |
| 20260504203037 | 27 | 10 | 1.6 | 12.9 | 0.00 | 0.00 | 0.00 | 41 | 1002.8 |
| 20260504202523 | 27 | 121 | 1.6 | 9.7 | 0.00 | 0.00 | 0.00 | 40 | 1002.9 |
| 20260504202024 | 27 | 300 | 1.6 | 11.3 | 0.00 | 0.00 | 0.00 | 40 | 1002.9 |
| 20260504201534 | 28 | 91 | 3.2 | 11.3 | 0.00 | 0.00 | 0.00 | 38 | 1003.0 |
| 20260504201024 | 28 | 186 | 1.6 | 11.3 | 0.00 | 0.00 | 0.00 | 39 | 1003.1 |
| 20260504200523 | 28 | 0 | 1.6 | 17.7 | 0.00 | 0.00 | 0.00 | 38 | 1003.0 |
| 20260504200036 | 28 | 348 | 1.6 | 17.7 | 0.00 | 0.00 | 0.00 | 38 | 1003.1 |
| 20260504195522 | 28 | 167 | 4.8 | 16.1 | 0.00 | 0.00 | 0.00 | 36 | 1003.0 |
| 20260504195023 | 28 | 0 | 3.2 | 11.3 | 0.00 | 0.00 | 0.00 | 36 | 1003.1 |
| 20260504194542 | 28 | 298 | 1.6 | 9.7 | 0.00 | 0.00 | 0.00 | 36 | 1003.1 |
| 20260504194024 | 28 | 275 | 1.6 | 16.1 | 0.00 | 0.00 | 0.00 | 36 | 1003.2 |
| 20260504193524 | 27 | 270 | 3.2 | 16.1 | 0.00 | 0.00 | 0.00 | 37 | 1003.2 |
| 20260504193038 | 27 | 158 | 1.6 | 12.9 | 0.00 | 0.00 | 0.00 | 37 | 1003.1 |
| 20260504192522 | 27 | 320 | 4.8 | 12.9 | 0.00 | 0.00 | 0.00 | 39 | 1003.2 |
| 20260504192021 | 27 | 209 | 1.6 | 11.3 | 0.00 | 0.00 | 0.00 | 39 | 1003.2 |
| 20260504191537 | 27 | 282 | 1.6 | 9.7 | 0.00 | 0.00 | 0.00 | 39 | 1003.2 |
| 20260504191025 | 27 | 94 | 1.6 | 14.5 | 0.00 | 0.00 | 0.00 | 41 | 1003.3 |
| 20260504190523 | 27 | 292 | 1.6 | 16.1 | 0.00 | 0.00 | 0.00 | 41 | 1003.3 |
| 20260504190038 | 27 | 309 | 6.4 | 16.1 | 0.00 | 0.00 | 0.00 | 42 | 1003.3 |
| 20260504185524 | 27 | 146 | 4.8 | 14.5 | 0.00 | 0.00 | 0.00 | 42 | 1003.3 |
| 20260504185024 | 27 | 284 | 3.2 | 14.5 | 0.00 | 0.00 | 0.00 | 42 | 1003.2 |
| 20260504184548 | 27 | 188 | 3.2 | 12.9 | 0.00 | 0.00 | 0.00 | 42 | 1003.3 |
| 20260504184026 | 27 | 0 | 1.6 | 12.9 | 0.00 | 0.00 | 0.00 | 42 | 1003.3 |
| 20260504183524 | 26 | 348 | 4.8 | 16.1 | 0.00 | 0.00 | 0.00 | 43 | 1003.3 |
| 20260504183036 | 26 | 0 | 3.2 | 22.5 | 0.00 | 0.00 | 0.00 | 40 | 1003.3 |
| 20260504182523 | 26 | 99 | 8.0 | 22.5 | 0.00 | 0.00 | 0.00 | 41 | 1003.4 |
| 20260504182027 | 26 | 140 | 4.8 | 20.9 | 0.00 | 0.00 | 0.00 | 41 | 1003.4 |
| 20260504181536 | 26 | 0 | 1.6 | 20.9 | 0.00 | 0.00 | 0.00 | 43 | 1003.4 |
| 20260504181026 | 26 | 232 | 3.2 | 20.9 | 0.00 | 0.00 | 0.00 | 42 | 1003.4 |
| 20260504180526 | 26 | 146 | 3.2 | 16.1 | 0.00 | 0.00 | 0.00 | 45 | 1003.4 |
| 20260504180035 | 25 | 243 | 3.2 | 16.1 | 0.00 | 0.00 | 0.00 | 44 | 1003.5 |
| 20260504175524 | 26 | 292 | 3.2 | 14.5 | 0.00 | 0.00 | 0.00 | 43 | 1003.5 |
| 20260504175029 | 26 | 290 | 1.6 | 11.3 | 0.00 | 0.00 | 0.00 | 44 | 1003.6 |
| 20260504174540 | 26 | 328 | 3.2 | 11.3 | 0.00 | 0.00 | 0.00 | 44 | 1003.6 |
| 20260504174024 | 26 | 0 | 1.6 | 14.5 | 0.00 | 0.00 | 0.00 | 43 | 1003.6 |
| 20260504173526 | 25 | 0 | 3.2 | 14.5 | 0.00 | 0.00 | 0.00 | 45 | 1003.6 |
| 20260504173037 | 25 | 207 | 3.2 | 14.5 | 0.00 | 0.00 | 0.00 | 44 | 1003.6 |
| 20260504172525 | 25 | 346 | 3.2 | 14.5 | 0.00 | 0.00 | 0.00 | 45 | 1003.6 |
| 20260504172025 | 25 | 140 | 3.2 | 12.9 | 0.00 | 0.00 | 0.00 | 44 | 1003.7 |
| 20260504171537 | 25 | 120 | 3.2 | 16.1 | 0.00 | 0.00 | 0.00 | 45 | 1003.7 |
| 20260504171025 | 25 | 0 | 4.8 | 16.1 | 0.00 | 0.00 | 0.00 | 47 | 1003.9 |
| 20260504170524 | 25 | 123 | 1.6 | 19.3 | 0.00 | 0.00 | 0.00 | 46 | 1003.8 |
| 20260504151025 | 21 | 284 | 1.6 | 11.3 | 0.00 | 0.00 | 0.00 | 56 | 1004.0 |
| 20260504150526 | 21 | 182 | 0.0 | 19.3 | 0.00 | 0.00 | 0.00 | 55 | 1003.9 |
| 20260504141024 | 18 | 0 | 3.2 | 16.1 | 0.00 | 0.00 | 0.00 | 61 | 1004.1 |
| 20260504140525 | 18 | 0 | 3.2 | 17.7 | 0.00 | 0.00 | 0.00 | 62 | 1004.0 |
| 20260504130523 | 16 | 175 | 1.6 | 12.9 | 0.00 | 0.00 | 0.00 | 67 | 1003.9 |
| 20260504110524 | 15 | 0 | 0.0 | 0.0 | 0.00 | 0.00 | 0.00 | 67 | 1004.0 |
| 20260504100523 | 17 | 0 | 0.0 | 3.2 | 0.00 | 0.00 | 0.00 | 59 | 1004.6 |
| 20260504081539 | 18 | 0 | 1.6 | 12.9 | 0.00 | 0.00 | 0.00 | 53 | 1004.8 |
| 20260504081026 | 18 | 0 | 1.6 | 12.9 | 0.00 | 0.00 | 0.00 | 53 | 1005.0 |
| 20260504080524 | 18 | 0 | 1.6 | 17.7 | 0.00 | 0.00 | 0.00 | 53 | 1005.1 |
| 20260504050525 | 18 | 0 | 0.0 | 0.0 | 0.00 | 0.00 | 0.00 | 57 | 1007.4 |
| 20260504045524 | 18 | 0 | 0.0 | 0.0 | 0.00 | 0.00 | 0.00 | 56 | 1007.4 |
| 20260504045024 | 18 | 0 | 0.0 | 0.0 | 0.00 | 0.00 | 0.00 | 54 | 1007.5 |
| 20260504044537 | 18 | 0 | 0.0 | 0.0 | 0.00 | 0.00 | 0.00 | 55 | 1007.6 |
| 20260504044024 | 18 | 0 | 0.0 | 0.0 | 0.00 | 0.00 | 0.00 | 54 | 1007.7 |
| 20260504043525 | 19 | 0 | 0.0 | 0.0 | 0.00 | 0.00 | 0.00 | 53 | 1007.8 |
| 20260504043042 | 19 | 0 | 0.0 | 0.0 | 0.00 | 0.00 | 0.00 | 52 | 1007.9 |
| 20260504042524 | 20 | 0 | 0.0 | 0.0 | 0.00 | 0.00 | 0.00 | 50 | 1007.9 |
| 20260504042024 | 20 | 0 | 0.0 | 0.0 | 0.00 | 0.00 | 0.00 | 50 | 1007.8 |
| 20260504041537 | 20 | 0 | 0.0 | 0.0 | 0.00 | 0.00 | 0.00 | 50 | 1007.9 |
| 20260504041024 | 20 | 0 | 0.0 | 0.0 | 0.00 | 0.00 | 0.00 | 50 | 1007.8 |
| 20260504040525 | 19 | 0 | 0.0 | 0.0 | 0.00 | 0.00 | 0.00 | 51 | 1007.8 |
| 20260504040042 | 19 | 0 | 0.0 | 0.0 | 0.00 | 0.00 | 0.00 | 51 | 1007.8 |
| 20260504035525 | 19 | 0 | 0.0 | 0.0 | 0.00 | 0.00 | 0.00 | 54 | 1007.8 |
| 20260504035024 | 19 | 0 | 0.0 | 0.0 | 0.00 | 0.00 | 0.00 | 52 | 1007.8 |
| 20260504034537 | 20 | 0 | 0.0 | 0.0 | 0.00 | 0.00 | 0.00 | 52 | 1007.8 |
| 20260504034030 | 20 | 0 | 0.0 | 0.0 | 0.00 | 0.00 | 0.00 | 50 | 1007.7 |
| 20260504033524 | 20 | 0 | 0.0 | 0.0 | 0.00 | 0.00 | 0.00 | 51 | 1007.8 |
| 20260504033036 | 20 | 0 | 0.0 | 0.0 | 0.00 | 0.00 | 0.00 | 50 | 1007.8 |
| 20260504032523 | 20 | 0 | 0.0 | 0.0 | 0.00 | 0.00 | 0.00 | 49 | 1007.9 |
| 20260504032024 | 20 | 0 | 0.0 | 0.0 | 0.00 | 0.00 | 0.00 | 50 | 1007.9 |
| 20260504031554 | 20 | 0 | 0.0 | 1.6 | 0.00 | 0.00 | 0.00 | 51 | 1007.8 |
| 20260504031023 | 20 | 0 | 0.0 | 14.5 | 0.00 | 0.00 | 0.00 | 50 | 1007.7 |
| 20260504030523 | 20 | 0 | 3.2 | 14.5 | 0.00 | 0.00 | 0.00 | 51 | 1007.9 |
| 20260504030043 | 20 | 0 | 0.0 | 3.2 | 0.00 | 0.00 | 0.00 | 51 | 1008.0 |
| 20260504025522 | 20 | 0 | 0.0 | 3.2 | 0.00 | 0.00 | 0.00 | 51 | 1007.9 |
| 20260504025023 | 20 | 0 | 0.0 | 0.0 | 0.00 | 0.00 | 0.00 | 51 | 1007.8 |
| 20260504024538 | 20 | 0 | 0.0 | 0.0 | 0.00 | 0.00 | 0.00 | 52 | 1007.8 |
| 20260504024023 | 20 | 0 | 0.0 | 0.0 | 0.00 | 0.00 | 0.00 | 52 | 1007.7 |
| 20260504023522 | 20 | 0 | 0.0 | 0.0 | 0.00 | 0.00 | 0.00 | 51 | 1007.7 |
| 20260504023038 | 20 | 0 | 0.0 | 0.0 | 0.00 | 0.00 | 0.00 | 51 | 1007.8 |
| 20260504022524 | 20 | 0 | 0.0 | 0.0 | 0.00 | 0.00 | 0.00 | 50 | 1007.8 |
| 20260504022022 | 21 | 0 | 0.0 | 0.0 | 0.00 | 0.00 | 0.00 | 52 | 1007.8 |
| 20260504021539 | 21 | 0 | 0.0 | 0.0 | 0.00 | 0.00 | 0.00 | 50 | 1007.8 |
| 20260504021020 | 21 | 0 | 0.0 | 0.0 | 0.00 | 0.00 | 0.00 | 50 | 1007.7 |
| 20260504020523 | 21 | 0 | 0.0 | 0.0 | 0.00 | 0.00 | 0.00 | 49 | 1007.8 |
| 20260504020040 | 21 | 0 | 0.0 | 0.0 | 0.00 | 0.00 | 0.00 | 50 | 1007.8 |
| 20260504015524 | 21 | 0 | 0.0 | 3.2 | 0.00 | 0.00 | 0.00 | 50 | 1007.8 |
| 20260504015025 | 21 | 0 | 0.0 | 3.2 | 0.00 | 0.00 | 0.00 | 50 | 1007.8 |
| 20260504014543 | 21 | 0 | 0.0 | 1.6 | 0.00 | 0.00 | 0.00 | 49 | 1007.8 |
| 20260504014023 | 21 | 0 | 0.0 | 0.0 | 0.00 | 0.00 | 0.00 | 49 | 1007.7 |
| 20260504013523 | 22 | 0 | 0.0 | 0.0 | 0.00 | 0.00 | 0.00 | 48 | 1007.8 |
| 20260504013041 | 22 | 0 | 0.0 | 0.0 | 0.00 | 0.00 | 0.00 | 48 | 1007.7 |
| 20260504012521 | 22 | 0 | 0.0 | 0.0 | 0.00 | 0.00 | 0.00 | 46 | 1007.7 |
| 20260504012024 | 22 | 0 | 0.0 | 0.0 | 0.00 | 0.00 | 0.00 | 45 | 1007.7 |
| 20260504011540 | 23 | 0 | 0.0 | 1.6 | 0.00 | 0.00 | 0.00 | 44 | 1007.6 |
| 20260504011021 | 23 | 0 | 0.0 | 3.2 | 0.00 | 0.00 | 0.00 | 43 | 1007.7 |
| 20260504010522 | 23 | 0 | 0.0 | 3.2 | 0.00 | 0.00 | 0.00 | 43 | 1007.6 |
| 20260504010048 | 23 | 0 | 0.0 | 3.2 | 0.00 | 0.00 | 0.00 | 42 | 1007.7 |
| 20260504005524 | 23 | 0 | 0.0 | 0.0 | 0.00 | 0.00 | 0.00 | 42 | 1007.7 |
| 20260504005021 | 23 | 0 | 0.0 | 0.0 | 0.00 | 0.00 | 0.00 | 42 | 1007.7 |
| 20260504004539 | 24 | 0 | 0.0 | 0.0 | 0.00 | 0.00 | 0.00 | 42 | 1007.8 |
| 20260504004024 | 24 | 0 | 0.0 | 0.0 | 0.00 | 0.00 | 0.00 | 41 | 1007.8 |
| 20260504003523 | 25 | 0 | 0.0 | 0.0 | 0.00 | 0.00 | 0.00 | 40 | 1007.8 |
| 20260504003040 | 25 | 0 | 0.0 | 1.6 | 0.00 | 0.00 | 0.00 | 40 | 1007.8 |
| 20260504002523 | 25 | 0 | 0.0 | 3.2 | 0.00 | 0.00 | 0.00 | 39 | 1007.9 |
| 20260504002022 | 25 | 0 | 0.0 | 3.2 | 0.00 | 0.00 | 0.00 | 39 | 1007.8 |
| 20260504001548 | 25 | 0 | 0.0 | 6.4 | 0.00 | 0.00 | 0.00 | 38 | 1007.9 |
| 20260504001024 | 25 | 0 | 0.0 | 8.0 | 0.00 | 0.00 | 0.00 | 38 | 1007.8 |
| 20260504000522 | 25 | 40 | 0.0 | 8.0 | 0.00 | 0.00 | 0.00 | 37 | 1007.8 |
| 20260504000038 | 25 | 0 | 0.0 | 8.0 | 0.00 | 0.00 | 0.00 | 37 | 1008.0 |
| 20260503235524 | 25 | 352 | 1.6 | 9.7 | 0.00 | 0.00 | 0.00 | 37 | 1008.2 |
| 20260503235021 | 26 | 25 | 1.6 | 9.7 | 0.00 | 0.00 | 0.00 | 37 | 1008.1 |
| 20260503234600 | 26 | 19 | 1.6 | 6.4 | 0.00 | 0.00 | 0.00 | 37 | 1008.1 |
| 20260503234023 | 26 | 28 | 0.0 | 6.4 | 0.00 | 0.00 | 0.00 | 37 | 1008.3 |
| 20260503233524 | 26 | 28 | 1.6 | 4.8 | 0.00 | 0.00 | 0.00 | 36 | 1008.2 |
| 20260503233044 | 26 | 0 | 1.6 | 6.4 | 0.00 | 0.00 | 0.00 | 35 | 1008.3 |
| 20260503232523 | 26 | 0 | 1.6 | 6.4 | 0.00 | 0.00 | 0.00 | 35 | 1008.3 |
| 20260503232023 | 26 | 41 | 1.6 | 8.0 | 0.00 | 0.00 | 0.00 | 34 | 1008.4 |
| 20260503231537 | 26 | 0 | 0.0 | 8.0 | 0.00 | 0.00 | 0.00 | 35 | 1008.6 |
| 20260503231028 | 26 | 5 | 1.6 | 8.0 | 0.00 | 0.00 | 0.00 | 34 | 1008.6 |
| 20260503230521 | 26 | 19 | 1.6 | 6.4 | 0.00 | 0.00 | 0.00 | 34 | 1008.5 |
| 20260503230038 | 26 | 19 | 1.6 | 11.3 | 0.00 | 0.00 | 0.00 | 35 | 1008.6 |
| 20260503225523 | 26 | 20 | 3.2 | 11.3 | 0.00 | 0.00 | 0.00 | 33 | 1008.7 |
| 20260503225023 | 27 | 11 | 3.2 | 8.0 | 0.00 | 0.00 | 0.00 | 34 | 1008.6 |
| 20260503224536 | 27 | 296 | 0.0 | 8.0 | 0.00 | 0.00 | 0.00 | 32 | 1008.7 |
| 20260503224021 | 27 | 0 | 1.6 | 8.0 | 0.00 | 0.00 | 0.00 | 34 | 1008.6 |
| 20260503223520 | 27 | 352 | 1.6 | 16.1 | 0.00 | 0.00 | 0.00 | 32 | 1008.8 |
| 20260503223039 | 27 | 315 | 8.0 | 16.1 | 0.00 | 0.00 | 0.00 | 32 | 1008.7 |
| 20260503222523 | 27 | 0 | 0.0 | 14.5 | 0.00 | 0.00 | 0.00 | 31 | 1008.7 |
| 20260503222023 | 27 | 321 | 3.2 | 14.5 | 0.00 | 0.00 | 0.00 | 31 | 1008.7 |
| 20260503221539 | 27 | 288 | 1.6 | 14.5 | 0.00 | 0.00 | 0.00 | 33 | 1008.6 |
| 20260503221023 | 27 | 248 | 4.8 | 14.5 | 0.00 | 0.00 | 0.00 | 32 | 1008.8 |
| 20260503220522 | 27 | 310 | 1.6 | 22.5 | 0.00 | 0.00 | 0.00 | 33 | 1008.8 |
| 20260503220036 | 27 | 351 | 3.2 | 22.5 | 0.00 | 0.00 | 0.00 | 34 | 1009.0 |
| 20260503215523 | 27 | 308 | 6.4 | 17.7 | 0.00 | 0.00 | 0.00 | 32 | 1009.0 |
| 20260503215024 | 27 | 340 | 3.2 | 17.7 | 0.00 | 0.00 | 0.00 | 34 | 1009.0 |
| 20260503214540 | 27 | 351 | 6.4 | 17.7 | 0.00 | 0.00 | 0.00 | 33 | 1009.2 |